User: anonymous   Login
Location: Unspecified
(0.0000°N, 0.0000°E)
Time: 18:53:57
(UTC+00:00)
Language:

Kyokko - Orbit

View from above orbital plane
View from above orbital plane
View from above satellite
View from above satellite

Ground track
Ground track

The orbit data is extracted from the following two-line orbital elements,

1 10664U 78014A   17145.76552975 -.00000072 +00000-0 -45932-4 0  9999
2 10664 065.3773 298.8143 1893341 097.9121 283.9700 10.75467245526859
Epoch (UTC): 25 May 2017 18:22:21
Eccentricity: 0.1893341
inclination: 65.3773°
perigee height: 650 km
apogee height: 3933 km
right ascension of ascending node: 298.8143°
argument of perigee: 97.9121°
revolutions per day: 10.75467245
mean anomaly at epoch: 283.9700°
orbit number at epoch: 52685

The dashed part of the orbit path shows where the satellite is in the earth's shadow,  

DLR